Flag for Sweden Weather past 2 weeks in Stockholm, Sweden

Now
68 °F

Sunny.


Feels Like: 68 °F
Forecast: 51 / 70 °F
Wind: 9 mph from Southwest

Location: Stockholm Bromma Airport

Current Time: Aug 3, 2015 at 3:37:39 PM

Latest Report: Aug 3, 2015 at 2:50 PM


Visibility: 10 mi

Pressure: 30.15 "Hg

Humidity: 46%

Dew point: 46 °F

Location of StockholmLocation

Historic Weather in Stockholm — Graph

°F

Stockholm temperature yesterday

Maximum temperature yesterday: 68 °F (at 2:50 PM)
Minimum temperature yesterday: 50 °F (at 3:20 AM)
Average temperature yesterday: 59 °F

Past Weeks' High & Low Weather Summary

 TemperatureHumidityPressure
High68 °F (Jul 19, 4:20 PM)100% (Jul 21, 12:50 AM)30.15 "Hg (Jul 21, 12:50 AM)
Low48 °F (Jul 25, 3:20 AM)35% (Jul 24, 3:50 PM)29.33 "Hg (Jul 26, 5:50 PM)
Average60 °F76%29.68 "Hg
* Reported Jul 19 2:20 PM — Aug 3 2:20 PM, Stockholm, Weather by CustomWeather, © 2015

Note: Actual official high and low records may vary slightly from our data, if they occured in-between our weather recording intervals... More about our weather records

Advertising

Stockholm weather history for previous 24 hours

 ConditionsComfort  
Time TempWeatherWind HumidityBarometerVisibility
2:20 PM
Mon, Aug 3
68 °FPassing clouds.7 mph49%30.15 "HgN/A
1:50 PM68 °FPassing clouds.7 mph49%30.15 "HgN/A
1:20 PM66 °FPassing clouds.6 mph52%30.15 "HgN/A
12:50 PM66 °FPassing clouds.8 mph52%30.15 "HgN/A
12:20 PM66 °FPassing clouds.9 mph56%30.15 "HgN/A
11:50 AM64 °FSunny.9 mph60%30.15 "Hg10 mi
11:20 AM63 °FSunny.9 mph64%30.12 "Hg10 mi
10:50 AM63 °FPassing clouds.9 mph64%30.12 "HgN/A
10:20 AM61 °FPassing clouds.8 mph63%30.12 "HgN/A
9:50 AM61 °FSunny.8 mph68%30.12 "Hg10 mi
9:20 AM61 °FPassing clouds.6 mph68%30.09 "HgN/A
8:50 AM59 °FPassing clouds.7 mph68%30.09 "HgN/A
8:20 AM59 °FPassing clouds.7 mph68%30.09 "HgN/A
7:50 AM57 °FSunny.8 mph72%30.09 "Hg10 mi
7:20 AM57 °FSunny.8 mph77%30.09 "Hg10 mi
6:50 AM57 °FSunny.9 mph77%30.07 "Hg10 mi
6:20 AM55 °FSunny.7 mph82%30.07 "Hg10 mi
5:50 AM55 °FSunny.8 mph82%30.07 "Hg10 mi
5:20 AM54 °FClear.10 mph88%30.07 "Hg10 mi
4:50 AM54 °FCool.9 mph88%30.07 "HgN/A
4:20 AM54 °FCool.9 mph88%30.07 "HgN/A
3:50 AM55 °FCool.8 mph82%30.07 "HgN/A
3:20 AM55 °FCool.7 mph82%30.04 "HgN/A
2:50 AM55 °FCool.8 mph82%30.04 "HgN/A
2:20 AM55 °FCool.8 mph82%30.04 "HgN/A
1:50 AM55 °FCool.6 mph82%30.04 "HgN/A
1:20 AM55 °FCool.7 mph82%30.04 "HgN/A
12:50 AM55 °FCool.8 mph82%30.04 "HgN/A
12:20 AM55 °FCool.8 mph82%30.04 "HgN/A
11:20 PM
Sun, Aug 2
55 °FPassing clouds.8 mph82%30.04 "HgN/A
10:50 PM55 °FPassing clouds.7 mph82%30.04 "HgN/A
10:20 PM55 °FPassing clouds.7 mph82%30.04 "HgN/A
9:50 PM55 °FSunny.8 mph82%30.01 "Hg10 mi
9:20 PM57 °FSunny.8 mph77%30.01 "Hg10 mi
8:50 PM57 °FScattered showers. Scattered clouds.12 mph77%30.01 "HgN/A
8:20 PM64 °FScattered clouds.9 mph56%30.01 "HgN/A
7:50 PM64 °FSunny.7 mph56%29.98 "Hg10 mi
7:20 PM64 °FPassing clouds.9 mph56%29.98 "HgN/A
6:50 PM64 °FScattered showers. Passing clouds.10 mph56%30.01 "HgN/A
6:20 PM64 °FScattered showers. Passing clouds.13 mph56%30.01 "HgN/A
5:50 PM64 °FScattered showers. Passing clouds.14 mph56%30.01 "HgN/A
5:20 PM64 °FScattered showers. Scattered clouds.10 mph56%30.01 "HgN/A
4:50 PM64 °FScattered clouds.8 mph60%30.01 "HgN/A
4:20 PM61 °FScattered showers. Broken clouds.14 mph72%30.01 "HgN/A
3:50 PM63 °FSprinkles. Broken clouds.12 mph68%30.01 "HgN/A
3:20 PM66 °FScattered clouds.10 mph49%30.01 "HgN/A
Weather by CustomWeather, © 2015

See weather overviewHow to use our weather pages